Location: *
(58.7167°N, 26.1833°E)
Time: 20:40:16
(UTC+00:00)

Cosmos 1125 Rocket - Pass Details

Date: 25 August 2019
Orbit: 757 x 781 km, 74.0° (Epoch: 23 September)

Event Time Altitude Azimuth Distance (km) Brightness Sun altitude
Exits shadow 21:39:18 10° 237° (WSW) 2,314 5.8 -20.2°
Reaches altitude 10° 21:39:19 10° 237° (WSW) 2,307 5.7 -20.2°
Maximum altitude 21:44:23 48° 312° (NW) 1,002 4.4 -20.3°
Drops below altitude 10° 21:49:32 10° 27° (NNE) 2,334 6.8 -20.4°
Sets 21:52:01 0° 33° (NNE) 3,269 7.6 -20.5°
